Regional Weather Roundup
Issued by NWS

Home | Current Version | Previous Version | Graphics & Text | Print | Product List | Glossary On
Versions: 1 2 3 4 5 6 7 8 9 10 11 12 13 14 15 16 17 18 19 20 21 22 23 24 25 26 27 28 29 30 31 32 33 34 35 36 37 38 39 40 41 42 43 44 45 46 47 48 49 50
043
ASUS43 KDMX 292108
RWRIA

WEATHER ROUNDUP FOR IOWA
NATIONAL WEATHER SERVICE DES MOINES IA
400 PM CDT FRI APR 29 2016

NOTE: "FAIR" INDICATES FEW OR NO CLOUDS BELOW 12,000 FEET WITH NO
SIGNIFICANT WEATHER AND/OR OBSTRUCTIONS TO VISIBILITY.

* - THESE STATIONS ARE NOT NWS STATIONS...THUS NOT UNDER NWS
QUALITY CONTROL.  THEY ALSO DO NOT REPORT WEATHER SUCH
AS PRECIPITATION OR FOG.

IAZ001>003-012>014-020>022-031>034-043>046-292200-
   NORTHWEST IOWA

CITY           SKY/WX    TMP DP  RH WIND       PRES   REMARKS
CARROLL *      CLOUDY    48  43  81 E15       30.07F
CHEROKEE *     CLOUDY    46  41  81 E8G16     30.11S
DENISON *      CLOUDY    46  43  87 E13       30.05F
LE MARS *      CLOUDY    48  39  71 E12       30.11F
ORANGE CITY *  CLOUDY    48  39  71 E10       30.11S
SHELDON *      PTSUNNY   48  41  76 E10       30.09F
SIOUX CITY     CLOUDY    47  40  76 E8        30.10S
SPENCER        CLOUDY    49  39  68 E14       30.11F
STORM LAKE *   CLOUDY    45  41  87 E14       30.10S
$$

IAZ055>058-069>071-079>083-090>094-292200-
   SOUTHWEST IOWA

CITY           SKY/WX    TMP DP  RH WIND       PRES   REMARKS
ATLANTIC *     CLOUDY    48  43  81 NE12      30.05S
AUDUBON *      PTSUNNY   48  43  81 E10       30.06F
CLARINDA *       N/A    N/A N/A N/A MISG        N/A
COUNCIL BLFS * CLOUDY    46  43  87 NE14      30.04F
CRESTON *      CLOUDY    48  45  87 E15       30.03F
HARLAN  *      CLOUDY    48  43  81 E12       30.08F
LAMONI         CLOUDY    51  44  77 E8        30.02F
RED OAK *      CLOUDY    50  45  81 NE13G20   30.02F
SHENANDOAH *   CLOUDY    52  46  82 E7G17     30.03S
$$

IAZ047>049-059>061-072>074-084-292200-
   CENTRAL IOWA

CITY           SKY/WX    TMP DP  RH WIND       PRES   REMARKS
AMES           CLOUDY    48  40  73 NE12      30.08F
ANKENY *       CLOUDY    50  43  76 NE10      30.07F
BOONE *        CLOUDY    46  41  81 NE12      30.08S
CHARITON *     CLOUDY    50  45  81 NE13      30.05S
DES MOINES     CLOUDY    51  41  68 NE10      30.05F
GRINNELL*      CLOUDY    48  41  76 NE9       30.09F
KNOXVILLE *    CLOUDY    50  43  76 E9        30.04F
MARSHALLTOWN   CLOUDY    48  40  73 E8        30.09F
NEWTON *       CLOUDY    50  43  76 NE9       30.08F
PELLA *        CLOUDY    50  43  76 NE5       30.07F
$$

IAZ004>006-015-016-023>025-035-036-292200-
   NORTH CENTRAL IOWA

CITY           SKY/WX    TMP DP  RH WIND       PRES   REMARKS
ALGONA *       CLOUDY    48  41  76 E12G17    30.11F
CLARION *      CLOUDY    46  41  81 E10       30.11F
ESTHERVILLE    CLOUDY    48  40  73 E9        30.11F
FORT DODGE *   CLOUDY    46  36  66 NE13      30.11S
MASON CITY     CLOUDY    48  40  73 E8        30.12F
FOREST CITY *  CLOUDY    46  37  71 E8        30.12F
WEBSTER CITY * CLOUDY    46  41  81 E10       30.09S
IOWA FALLS *   CLOUDY    48  39  71 E8        30.10F
$$

IAZ007>011-017>019-026>030-037>042-050>054-066-292200-
   NORTHEAST IOWA

CITY           SKY/WX    TMP DP  RH WIND       PRES   REMARKS
CEDAR RAPIDS   CLOUDY    50  43  77 E7        30.09F
CHARLES CITY * CLOUDY    48  41  76 E8        30.12F
CLINTON *      CLOUDY    50  41  71 NE7       30.11S
DECORAH *      CLOUDY    50  37  62 E5        30.10F
DUBUQUE        CLOUDY    49  39  68 NE9       30.10F
MONTICELLO *   CLOUDY    50  41  71 E9        30.10S
OELWEIN *      CLOUDY    48  39  71 E5        30.11F
WATERLOO       CLOUDY    49  39  68 E9        30.10F
$$

IAZ064-065-067-068-078-292200-
   EAST CENTRAL IOWA

CITY           SKY/WX    TMP DP  RH WIND       PRES   REMARKS
DAVENPORT      CLOUDY    50  41  71 NE8       30.10F
IOWA CITY      CLOUDY    50  42  74 NE8       30.11S
MT. PLEASANT * CLOUDY    54  46  76 E8        30.08F
MUSCATINE *    CLOUDY    54  41  62 VRB3      30.10F
QUAD CITIES    CLOUDY    52  41  66 E7        30.09F
$$

IAZ062-063-075>077-085>089-095>099-292200-
   SOUTHEAST IOWA

CITY           SKY/WX    TMP DP  RH WIND       PRES   REMARKS
BURLINGTON     CLOUDY    52  45  77 NE8       30.07F
FAIRFIELD *    CLOUDY    50  43  76 NE9       30.07F
FORT MADISON * CLOUDY    52  45  76 NE8       30.08S
KEOKUK *       CLOUDY    54  46  76 E8        30.06S
OSKALOOSA *    CLOUDY    50  43  76 E9        30.07F
OTTUMWA        CLOUDY    51  42  71 E12       30.06F
WASHINGTON *   CLOUDY    50  45  81 E6        30.10F
$$

ABBREVIATIONS USED IN REMARKS
   TC - TEMPERATURES IN CELSIUS
  WCI - WIND CHILL INDEX
   HX - HEAT INDEX
  VSB - VISIBILITY
$$





USA.gov is the U.S. government's official web portal to all federal, state and local government web resources and services.